GLOBALSTAR M069

Last updated on Sat Sep 05 2026 00:03:15 GMT+0000 (Coordinated Universal Time)

1 31573U 07020C 26247.43103196 -.00000074 00000+0 17219-3 0 9990 2 31573 52.0047 27.8317 0001205 328.8633 67.4418 12.23473624888501
UTC large
Height (km)
Speed (km/s)
/
Latitude / Longitude
Inclination (degrees)
Orbital Period (minutes)
Azimuth
Elevation
Range (km)
Doppler Factor

Next 0 passes for location: London (51.5072 / 0.1276)

No passes found over London.
GLOBALSTAR M069